| time (UTC) | temp F | wind direction | speed knots | gust knots | rain 1hr in | rain 24hr in | rain mn in | humidity % | barometer mb |
| 20260507101820 | 73 | 130 | 11.3 | 0.0 | 0.00 | 0.00 | 0.00 | 47 | 1014.0 |
| 20260507100321 | 73 | 130 | 11.3 | 0.0 | 0.00 | 0.00 | 0.00 | 47 | 1014.0 |
| 20260507094820 | 73 | 130 | 8.7 | 19.1 | 0.00 | 0.00 | 0.00 | 50 | 1014.0 |
| 20260507093320 | 73 | 130 | 8.7 | 19.1 | 0.00 | 0.00 | 0.00 | 50 | 1014.0 |
| 20260507091822 | 73 | 160 | 7.0 | 0.0 | 0.00 | 0.00 | 0.00 | 47 | 1014.0 |
| 20260507090320 | 73 | 160 | 7.0 | 0.0 | 0.00 | 0.00 | 0.00 | 47 | 1014.0 |
| 20260507084820 | 72 | 160 | 6.1 | 0.0 | 0.00 | 0.00 | 0.00 | 50 | 1014.0 |
| 20260507083320 | 72 | 160 | 6.1 | 0.0 | 0.00 | 0.00 | 0.00 | 50 | 1014.0 |
| 20260507081820 | 70 | 150 | 6.1 | 0.0 | 0.00 | 0.00 | 0.00 | 50 | 1014.0 |
| 20260507080321 | 70 | 150 | 6.1 | 0.0 | 0.00 | 0.00 | 0.00 | 50 | 1014.0 |
| 20260507074821 | 68 | 160 | 6.1 | 0.0 | 0.00 | 0.00 | 0.00 | 53 | 1014.0 |
| 20260507073320 | 68 | 160 | 6.1 | 0.0 | 0.00 | 0.00 | 0.00 | 53 | 1014.0 |
| 20260507071820 | 64 | 180 | 5.2 | 0.0 | 0.00 | 0.00 | 0.00 | 60 | 1014.0 |
| 20260507070320 | 64 | 180 | 5.2 | 0.0 | 0.00 | 0.00 | 0.00 | 60 | 1014.0 |
| 20260507064820 | 64 | 180 | 5.2 | 0.0 | 0.00 | 0.00 | 0.00 | 60 | 1014.0 |
| 20260507063320 | 64 | 180 | 5.2 | 0.0 | 0.00 | 0.00 | 0.00 | 60 | 1014.0 |
| 20260507061829 | 61 | 200 | 8.7 | 0.0 | 0.00 | 0.00 | 0.00 | 63 | 1014.0 |
| 20260507060320 | 61 | 200 | 8.7 | 0.0 | 0.00 | 0.00 | 0.00 | 63 | 1014.0 |
| 20260507054820 | 57 | 200 | 9.6 | 0.0 | 0.00 | 0.00 | 0.00 | 67 | 1014.0 |
| 20260507053327 | 57 | 200 | 9.6 | 0.0 | 0.00 | 0.00 | 0.00 | 67 | 1014.0 |
| 20260507051820 | 55 | 200 | 9.6 | 0.0 | 0.00 | 0.00 | 0.00 | 72 | 1014.0 |
| 20260507050320 | 55 | 200 | 9.6 | 0.0 | 0.00 | 0.00 | 0.00 | 72 | 1014.0 |
| 20260507044817 | 54 | 200 | 9.6 | 0.0 | 0.00 | 0.00 | 0.00 | 77 | 1014.0 |
| 20260507043320 | 54 | 200 | 9.6 | 0.0 | 0.00 | 0.00 | 0.00 | 77 | 1014.0 |
| 20260507041820 | 52 | 200 | 11.3 | 0.0 | 0.00 | 0.00 | 0.00 | 82 | 1013.0 |
| 20260507040320 | 52 | 200 | 11.3 | 0.0 | 0.00 | 0.00 | 0.00 | 82 | 1013.0 |
| 20260507034817 | 50 | 210 | 9.6 | 0.0 | 0.00 | 0.00 | 0.00 | 82 | 1013.0 |
| 20260507033319 | 50 | 210 | 9.6 | 0.0 | 0.00 | 0.00 | 0.00 | 82 | 1013.0 |
| 20260507031820 | 52 | 210 | 11.3 | 0.0 | 0.00 | 0.00 | 0.00 | 77 | 1013.0 |
| 20260507030320 | 52 | 210 | 11.3 | 0.0 | 0.00 | 0.00 | 0.00 | 77 | 1013.0 |
| 20260507024820 | 50 | 210 | 11.3 | 0.0 | 0.00 | 0.00 | 0.00 | 82 | 1013.0 |
| 20260507023320 | 50 | 210 | 11.3 | 0.0 | 0.00 | 0.00 | 0.00 | 82 | 1013.0 |
| 20260507021820 | 52 | 210 | 8.7 | 0.0 | 0.00 | 0.00 | 0.00 | 77 | 1013.0 |
| 20260507020320 | 52 | 210 | 8.7 | 0.0 | 0.00 | 0.00 | 0.00 | 77 | 1013.0 |
| 20260507014820 | 50 | 190 | 7.0 | 0.0 | 0.00 | 0.00 | 0.00 | 82 | 1013.0 |
| 20260507013319 | 50 | 190 | 7.0 | 0.0 | 0.00 | 0.00 | 0.00 | 82 | 1013.0 |
| 20260507011820 | 50 | 180 | 7.0 | 0.0 | 0.00 | 0.00 | 0.00 | 82 | 1013.0 |
| 20260507010320 | 50 | 180 | 7.0 | 0.0 | 0.00 | 0.00 | 0.00 | 82 | 1013.0 |
| 20260507004820 | 50 | 180 | 8.7 | 0.0 | 0.00 | 0.00 | 0.00 | 82 | 1013.0 |
| 20260507003321 | 50 | 180 | 8.7 | 0.0 | 0.00 | 0.00 | 0.00 | 82 | 1013.0 |
| 20260507001820 | 54 | 190 | 8.7 | 0.0 | 0.00 | 0.00 | 0.00 | 72 | 1013.0 |
| 20260507000321 | 54 | 190 | 8.7 | 0.0 | 0.00 | 0.00 | 0.00 | 72 | 1013.0 |
| 20260506234820 | 54 | 180 | 11.3 | 0.0 | 0.00 | 0.00 | 0.00 | 72 | 1013.0 |
| 20260506233320 | 54 | 180 | 11.3 | 0.0 | 0.00 | 0.00 | 0.00 | 72 | 1013.0 |
| 20260506231821 | 54 | 180 | 9.6 | 0.0 | 0.00 | 0.00 | 0.00 | 72 | 1013.0 |
| 20260506230320 | 54 | 180 | 9.6 | 0.0 | 0.00 | 0.00 | 0.00 | 72 | 1013.0 |
| 20260506224816 | 55 | 180 | 8.7 | 0.0 | 0.00 | 0.00 | 0.00 | 67 | 1013.0 |
| 20260506223320 | 55 | 180 | 8.7 | 0.0 | 0.00 | 0.00 | 0.00 | 67 | 1013.0 |
| 20260506221820 | 57 | 180 | 8.7 | 0.0 | 0.00 | 0.00 | 0.00 | 63 | 1013.0 |
| 20260506220319 | 57 | 180 | 8.7 | 0.0 | 0.00 | 0.00 | 0.00 | 63 | 1013.0 |
| 20260506214836 | 59 | 180 | 9.6 | 0.0 | 0.00 | 0.00 | 0.00 | 59 | 1012.0 |
| 20260506213320 | 59 | 180 | 9.6 | 0.0 | 0.00 | 0.00 | 0.00 | 59 | 1012.0 |
| 20260506211817 | 59 | 170 | 9.6 | 0.0 | 0.00 | 0.00 | 0.00 | 59 | 1012.0 |
| 20260506210319 | 59 | 170 | 9.6 | 0.0 | 0.00 | 0.00 | 0.00 | 59 | 1012.0 |
| 20260506204821 | 61 | 170 | 9.6 | 0.0 | 0.00 | 0.00 | 0.00 | 55 | 1012.0 |
| 20260506203320 | 61 | 170 | 9.6 | 0.0 | 0.00 | 0.00 | 0.00 | 55 | 1012.0 |
| 20260506201817 | 63 | 160 | 11.3 | 0.0 | 0.00 | 0.00 | 0.00 | 52 | 1012.0 |
| 20260506200320 | 63 | 160 | 11.3 | 0.0 | 0.00 | 0.00 | 0.00 | 52 | 1012.0 |
| 20260506194839 | 63 | 160 | 13.9 | 0.0 | 0.00 | 0.00 | 0.00 | 52 | 1012.0 |
| 20260506193344 | 63 | 160 | 13.9 | 0.0 | 0.00 | 0.00 | 0.00 | 52 | 1012.0 |
| 20260506191821 | 64 | 170 | 15.6 | 0.0 | 0.00 | 0.00 | 0.00 | 46 | 1012.0 |
| 20260506190320 | 64 | 170 | 15.6 | 0.0 | 0.00 | 0.00 | 0.00 | 46 | 1012.0 |
| 20260506184825 | 66 | 170 | 15.6 | 0.0 | 0.00 | 0.00 | 0.00 | 40 | 1012.0 |
| 20260506183320 | 66 | 170 | 15.6 | 0.0 | 0.00 | 0.00 | 0.00 | 40 | 1012.0 |
| 20260506181820 | 66 | 170 | 13.9 | 0.0 | 0.00 | 0.00 | 0.00 | 40 | 1011.0 |
| 20260506180320 | 66 | 170 | 13.9 | 0.0 | 0.00 | 0.00 | 0.00 | 40 | 1011.0 |
| 20260506174820 | 68 | 160 | 14.8 | 0.0 | 0.00 | 0.00 | 0.00 | 38 | 1011.0 |
| 20260506173320 | 68 | 160 | 14.8 | 0.0 | 0.00 | 0.00 | 0.00 | 38 | 1011.0 |
| 20260506171820 | 70 | 160 | 14.8 | 0.0 | 0.00 | 0.00 | 0.00 | 35 | 1011.0 |
| 20260506170320 | 70 | 160 | 14.8 | 0.0 | 0.00 | 0.00 | 0.00 | 35 | 1011.0 |
| 20260506164820 | 72 | 160 | 17.4 | 0.0 | 0.00 | 0.00 | 0.00 | 33 | 1011.0 |
| 20260506163320 | 72 | 160 | 17.4 | 0.0 | 0.00 | 0.00 | 0.00 | 33 | 1011.0 |
| 20260506161820 | 73 | 160 | 15.6 | 0.0 | 0.00 | 0.00 | 0.00 | 29 | 1011.0 |
| 20260506160320 | 73 | 160 | 15.6 | 0.0 | 0.00 | 0.00 | 0.00 | 29 | 1011.0 |
| 20260506154821 | 75 | 170 | 18.2 | 0.0 | 0.00 | 0.00 | 0.00 | 27 | 1011.0 |
| 20260506153320 | 75 | 170 | 18.2 | 0.0 | 0.00 | 0.00 | 0.00 | 27 | 1011.0 |
| 20260506151820 | 77 | 160 | 17.4 | 0.0 | 0.00 | 0.00 | 0.00 | 28 | 1011.0 |
| 20260506150326 | 77 | 160 | 17.4 | 0.0 | 0.00 | 0.00 | 0.00 | 28 | 1011.0 |
| 20260506144820 | 77 | 160 | 17.4 | 0.0 | 0.00 | 0.00 | 0.00 | 28 | 1011.0 |
| 20260506143332 | 77 | 160 | 17.4 | 0.0 | 0.00 | 0.00 | 0.00 | 28 | 1011.0 |
| 20260506141820 | 77 | 150 | 18.2 | 0.0 | 0.00 | 0.00 | 0.00 | 28 | 1011.0 |
| 20260506140436 | 77 | 150 | 18.2 | 0.0 | 0.00 | 0.00 | 0.00 | 28 | 1011.0 |
| 20260506134845 | 77 | 140 | 17.4 | 0.0 | 0.00 | 0.00 | 0.00 | 26 | 1011.0 |
| 20260506133320 | 77 | 140 | 17.4 | 0.0 | 0.00 | 0.00 | 0.00 | 26 | 1011.0 |
| 20260506131820 | 79 | 140 | 15.6 | 0.0 | 0.00 | 0.00 | 0.00 | 26 | 1011.0 |
| 20260506130329 | 79 | 140 | 15.6 | 0.0 | 0.00 | 0.00 | 0.00 | 26 | 1011.0 |
| 20260506124821 | 79 | 140 | 17.4 | 0.0 | 0.00 | 0.00 | 0.00 | 24 | 1012.0 |
| 20260506123320 | 79 | 140 | 17.4 | 0.0 | 0.00 | 0.00 | 0.00 | 24 | 1012.0 |
| 20260506121820 | 79 | 150 | 15.6 | 0.0 | 0.00 | 0.00 | 0.00 | 23 | 1012.0 |
| 20260506120320 | 79 | 150 | 15.6 | 0.0 | 0.00 | 0.00 | 0.00 | 23 | 1012.0 |
| 20260506114820 | 79 | 150 | 13.0 | 0.0 | 0.00 | 0.00 | 0.00 | 26 | 1012.0 |
| 20260506113320 | 79 | 150 | 13.0 | 0.0 | 0.00 | 0.00 | 0.00 | 26 | 1012.0 |
| 20260506111820 | 79 | 160 | 12.2 | 0.0 | 0.00 | 0.00 | 0.00 | 23 | 1013.0 |
| 20260506110320 | 79 | 160 | 12.2 | 0.0 | 0.00 | 0.00 | 0.00 | 23 | 1013.0 |
| 20260506104820 | 79 | 150 | 13.0 | 0.0 | 0.00 | 0.00 | 0.00 | 24 | 1013.0 |
| 20260506103320 | 79 | 150 | 13.0 | 0.0 | 0.00 | 0.00 | 0.00 | 24 | 1013.0 |